Location: Deurze
(52.9838°N, 6.6090°E)
Time: 18:33:33
(UTC+00:00)

Meteor 1-5 Rocket - Pass Details

Date: 11 March 2026
Orbit: 787 x 914 km, 81.2° (Epoch: 20 April)

Event Time Altitude Azimuth Distance (km) Brightness Sun altitude
Rises 18:29:55 0° 175° (S) 3,532 7.3 -9.8°
Reaches altitude 10° 18:32:27 10° 171° (S) 2,587 6.6 -10.1°
Maximum altitude 18:38:10 54° 96° (E) 1,080 4.4 -11.0°
Drops below altitude 10° 18:43:48 10° 20° (NNE) 2,542 6.6 -11.8°
Sets 18:46:16 0° 16° (NNE) 3,466 7.3 -12.2°
